SPKEA EPGD-EPEL

Flight info

Callsign SPKEA
Flight time 1h 2m
Altitude 1500
Route DCT EPGDN DCT EPGDM DCT EPGDG DCT 542010N0185553E 542040N0191014E/N0110A035 542305N0192635E STAY1/0013 542550N0193537E/N0110A025 542305N0192635E 542040N0191014E 541620N0190829E/N0095A015 541113N0191309E DCT EPELB DCT
Aircraft C172/L-SBDGR/C

Departure

Time 2026-04-28 11:18
Airport Gdańsk Lech Wałęsa Airport (EPGD)

Arrival

Time 2026-04-28 12:21
Airport Elbląg Airfield (EPEL)
Time Latitude Longitude Altitude Speed Heading
2026-04-28 11:04 54.37291 18.49442 498 ft 0 kts 251°
2026-04-28 11:14 54.37290 18.49440 498 ft 2 kts 256°
2026-04-28 11:14 54.37298 18.49382 495 ft 5 kts 294°
2026-04-28 11:14 54.37299 18.49315 491 ft 5 kts 211°
2026-04-28 11:15 54.37234 18.49267 484 ft 12 kts 203°
2026-04-28 11:15 54.37207 18.49246 481 ft 0 kts 212°
2026-04-28 11:16 54.37193 18.49227 479 ft 9 kts 224°
2026-04-28 11:16 54.37146 18.49128 478 ft 9 kts 237°
2026-04-28 11:16 54.37145 18.49096 478 ft 0 kts 292°
2026-04-28 11:16 54.37151 18.49072 478 ft 11 kts 293°
2026-04-28 11:17 54.37241 18.48708 473 ft 56 kts 292°
2026-04-28 11:17 54.37416 18.48009 574 ft 67 kts 299°
2026-04-28 11:17 54.37598 18.47282 743 ft 66 kts 297°
2026-04-28 11:17 54.37779 18.46507 876 ft 73 kts 295°
2026-04-28 11:18 54.37954 18.45641 1049 ft 76 kts 293°
2026-04-28 11:18 54.38123 18.44781 1221 ft 78 kts 298°
2026-04-28 11:18 54.38345 18.43907 1355 ft 81 kts 300°
2026-04-28 11:18 54.38593 18.43060 1424 ft 73 kts 314°
2026-04-28 11:19 54.39037 18.42786 1385 ft 70 kts
2026-04-28 11:19 54.39467 18.43211 1335 ft 73 kts 27°
2026-04-28 11:19 54.39892 18.43773 1396 ft 78 kts 29°
2026-04-28 11:19 54.40130 18.44682 1359 ft 98 kts 84°
2026-04-28 11:20 54.39829 18.45769 1290 ft 98 kts 117°
2026-04-28 11:20 54.39568 18.46820 1377 ft 91 kts 81°
2026-04-28 11:20 54.39733 18.47806 1441 ft 82 kts 42°
2026-04-28 11:20 54.40153 18.48437 1502 ft 78 kts 17°
2026-04-28 11:21 54.40658 18.48735 1534 ft 78 kts
2026-04-28 11:21 54.41203 18.48904 1527 ft 83 kts 16°
2026-04-28 11:21 54.41657 18.49602 1527 ft 91 kts 41°
2026-04-28 11:21 54.42073 18.50423 1504 ft 90 kts 37°
2026-04-28 11:22 54.42513 18.51133 1499 ft 86 kts 36°
2026-04-28 11:22 54.42920 18.51920 1508 ft 87 kts 41°
2026-04-28 11:22 54.43325 18.52687 1512 ft 86 kts 36°
2026-04-28 11:22 54.43727 18.53476 1503 ft 88 kts 43°
2026-04-28 11:23 54.44060 18.54370 1504 ft 94 kts 65°
2026-04-28 11:23 54.44024 18.55523 1504 ft 102 kts 103°
2026-04-28 11:23 54.43696 18.56639 1510 ft 104 kts 112°
2026-04-28 11:23 54.43339 18.57723 1507 ft 106 kts 119°
2026-04-28 11:24 54.42851 18.58708 1515 ft 111 kts 129°
2026-04-28 11:24 54.42298 18.59679 1516 ft 114 kts 125°
2026-04-28 11:24 54.41798 18.60771 1514 ft 116 kts 121°
2026-04-28 11:24 54.41354 18.61917 1510 ft 111 kts 114°
2026-04-28 11:25 54.41080 18.63101 1507 ft 104 kts 97°
2026-04-28 11:25 54.40915 18.64325 1514 ft 106 kts 91°
2026-04-28 11:25 54.40723 18.65558 1511 ft 111 kts 108°
2026-04-28 11:25 54.40377 18.66780 1512 ft 114 kts 112°
2026-04-28 11:26 54.39958 18.67956 1512 ft 117 kts 121°
2026-04-28 11:26 54.39437 18.69030 1514 ft 117 kts 126°
2026-04-28 11:26 54.38835 18.70011 1516 ft 119 kts 135°
2026-04-28 11:26 54.38264 18.71029 1516 ft 118 kts 125°
2026-04-28 11:27 54.37823 18.72193 1516 ft 115 kts 112°
2026-04-28 11:27 54.37539 18.73457 1515 ft 112 kts 99°
2026-04-28 11:27 54.37347 18.74762 1510 ft 112 kts 95°
2026-04-28 11:27 54.37145 18.76061 1512 ft 114 kts 104°
2026-04-28 11:28 54.36824 18.77315 1511 ft 114 kts 109°
2026-04-28 11:28 54.36513 18.78576 1513 ft 113 kts 103°
2026-04-28 11:28 54.36293 18.79862 1511 ft 113 kts 97°
2026-04-28 11:28 54.36032 18.81159 1511 ft 114 kts 102°
2026-04-28 11:29 54.35751 18.82444 1510 ft 115 kts 105°
2026-04-28 11:29 54.35440 18.83708 1516 ft 115 kts 106°
2026-04-28 11:29 54.35148 18.84985 1505 ft 114 kts 102°
2026-04-28 11:29 54.34896 18.86262 1509 ft 113 kts 102°
2026-04-28 11:30 54.34645 18.87561 1511 ft 113 kts 99°
2026-04-28 11:30 54.34162 18.90130 1492 ft 114 kts 108°
2026-04-28 11:30 54.33882 18.91392 1497 ft 111 kts 98°
2026-04-28 11:31 54.33680 18.92672 1486 ft 110 kts 99°
2026-04-28 11:31 54.33570 18.93928 1496 ft 106 kts 86°
2026-04-28 11:31 54.33566 18.95171 1502 ft 103 kts 81°
2026-04-28 11:31 54.33620 18.96380 1501 ft 100 kts 74°
2026-04-28 11:32 54.33693 18.97581 1499 ft 106 kts 77°
2026-04-28 11:32 54.33712 18.98930 1495 ft 117 kts 82°
2026-04-28 11:32 54.33745 19.00296 1491 ft 112 kts 77°
2026-04-28 11:32 54.33806 19.01619 1489 ft 108 kts 78°
2026-04-28 11:33 54.33844 19.02884 1476 ft 104 kts 77°
2026-04-28 11:33 54.33900 19.04179 1492 ft 109 kts 78°
2026-04-28 11:33 54.33967 19.05401 1487 ft 100 kts 73°
2026-04-28 11:33 54.34032 19.06608 1486 ft 102 kts 77°
2026-04-28 11:34 54.34089 19.07843 1484 ft 107 kts 78°
2026-04-28 11:34 54.34111 19.09154 1488 ft 110 kts 81°
2026-04-28 11:34 54.34162 19.10467 1484 ft 110 kts 76°
2026-04-28 11:34 54.34235 19.11771 1484 ft 111 kts 76°
2026-04-28 11:35 54.34278 19.12999 1470 ft 99 kts 80°
2026-04-28 11:35 54.34275 19.14191 1480 ft 99 kts 81°
2026-04-28 11:35 54.34268 19.15390 1480 ft 101 kts 81°
2026-04-28 11:35 54.34308 19.16577 1496 ft 100 kts 76°
2026-04-28 11:36 54.34391 19.17777 1508 ft 100 kts 70°
2026-04-28 11:36 54.34567 19.18912 1660 ft 98 kts 64°
2026-04-28 11:36 54.34725 19.20040 1830 ft 96 kts 65°
2026-04-28 11:36 54.34915 19.21133 2010 ft 96 kts 67°
2026-04-28 11:37 54.35057 19.22253 2188 ft 95 kts 65°
2026-04-28 11:37 54.35210 19.23362 2363 ft 95 kts 69°
2026-04-28 11:37 54.35354 19.24448 2535 ft 93 kts 65°
2026-04-28 11:37 54.35539 19.25480 2728 ft 89 kts 60°
2026-04-28 11:38 54.35701 19.26505 2927 ft 89 kts 68°
2026-04-28 11:38 54.35794 19.27559 3100 ft 91 kts 70°
2026-04-28 11:38 54.35885 19.28655 3236 ft 95 kts 70°
2026-04-28 11:38 54.36020 19.29783 3366 ft 96 kts 67°
2026-04-28 11:39 54.36192 19.30921 3442 ft 100 kts 60°
2026-04-28 11:39 54.36425 19.32084 3453 ft 108 kts 63°
2026-04-28 11:39 54.36609 19.33388 3452 ft 113 kts 69°
2026-04-28 11:39 54.36757 19.34692 3444 ft 108 kts 68°
2026-04-28 11:40 54.36928 19.35916 3442 ft 102 kts 64°
2026-04-28 11:40 54.37123 19.37053 3422 ft 98 kts 63°
2026-04-28 11:40 54.37354 19.38123 3437 ft 92 kts 57°
2026-04-28 11:40 54.37557 19.39155 3446 ft 91 kts 64°
2026-04-28 11:41 54.37740 19.40203 3446 ft 90 kts 62°
2026-04-28 11:41 54.37928 19.41221 3450 ft 89 kts 60°
2026-04-28 11:41 54.38128 19.42264 3450 ft 93 kts 61°
2026-04-28 11:41 54.38309 19.43350 3449 ft 99 kts 70°
2026-04-28 11:42 54.38133 19.44508 3444 ft 104 kts 116°
2026-04-28 11:42 54.37613 19.45375 3446 ft 105 kts 134°
2026-04-28 11:42 54.37034 19.46150 3451 ft 105 kts 136°
2026-04-28 11:42 54.36454 19.46902 3446 ft 105 kts 136°
2026-04-28 11:43 54.35867 19.47658 3444 ft 105 kts 137°
2026-04-28 11:43 54.35284 19.48404 3444 ft 104 kts 137°
2026-04-28 11:43 54.34705 19.49150 3446 ft 104 kts 133°
2026-04-28 11:43 54.34372 19.50149 3448 ft 92 kts 86°
2026-04-28 11:44 54.34458 19.51180 3449 ft 84 kts 54°
2026-04-28 11:44 54.34863 19.51771 3451 ft 74 kts
2026-04-28 11:44 54.35354 19.51587 3456 ft 75 kts 333°
2026-04-28 11:44 54.35795 19.51093 3453 ft 76 kts 329°
2026-04-28 11:45 54.36186 19.50546 3444 ft 66 kts 330°
2026-04-28 11:45 54.36563 19.50086 3455 ft 68 kts 327°
2026-04-28 11:45 54.36951 19.49628 3454 ft 67 kts 330°
2026-04-28 11:45 54.37317 19.49113 3458 ft 69 kts 329°
2026-04-28 11:46 54.37720 19.48615 3459 ft 74 kts 328°
2026-04-28 11:46 54.38184 19.48208 3454 ft 74 kts 355°
2026-04-28 11:46 54.38650 19.48545 3457 ft 77 kts 31°
2026-04-28 11:46 54.39064 19.49158 3453 ft 80 kts 44°
2026-04-28 11:47 54.39172 19.50181 3459 ft 97 kts 90°
2026-04-28 11:47 54.38801 19.51226 3460 ft 111 kts 134°
2026-04-28 11:47 54.38143 19.51930 3461 ft 114 kts 146°
2026-04-28 11:47 54.37458 19.52634 3459 ft 115 kts 143°
2026-04-28 11:48 54.36783 19.53393 3457 ft 115 kts 141°
2026-04-28 11:48 54.36151 19.54212 3455 ft 113 kts 123°
2026-04-28 11:48 54.35892 19.55374 3461 ft 99 kts 78°
2026-04-28 11:48 54.36138 19.56357 3460 ft 86 kts 33°
2026-04-28 11:49 54.36674 19.56611 3460 ft 81 kts 347°
2026-04-28 11:49 54.37178 19.56143 3462 ft 83 kts 329°
2026-04-28 11:49 54.37651 19.55559 3460 ft 84 kts 328°
2026-04-28 11:49 54.38070 19.54843 3460 ft 86 kts 312°
2026-04-28 11:50 54.38485 19.54132 3463 ft 84 kts 329°
2026-04-28 11:50 54.38981 19.53604 3463 ft 83 kts 332°
2026-04-28 11:50 54.39477 19.53085 3463 ft 83 kts 332°
2026-04-28 11:50 54.39994 19.52636 3459 ft 82 kts 351°
2026-04-28 11:51 54.40526 19.52955 3462 ft 87 kts 36°
2026-04-28 11:51 54.40883 19.53806 3454 ft 91 kts 63°
2026-04-28 11:51 54.40797 19.54950 3466 ft 110 kts 107°
2026-04-28 11:51 54.40233 19.55954 3461 ft 120 kts 140°
2026-04-28 11:52 54.39592 19.56697 3449 ft 103 kts 134°
2026-04-28 11:52 54.39003 19.57334 3457 ft 99 kts 153°
2026-04-28 11:52 54.38358 19.57822 3463 ft 100 kts 144°
2026-04-28 11:52 54.37813 19.58569 3454 ft 99 kts 123°
2026-04-28 11:53 54.37576 19.59598 3462 ft 93 kts 77°
2026-04-28 11:53 54.37698 19.60600 3449 ft 83 kts 62°
2026-04-28 11:53 54.38047 19.61350 3456 ft 76 kts 18°
2026-04-28 11:53 54.38546 19.61316 3467 ft 79 kts 336°
2026-04-28 11:54 54.39045 19.60791 3463 ft 88 kts 329°
2026-04-28 11:54 54.39546 19.60167 3455 ft 86 kts 326°
2026-04-28 11:54 54.40026 19.59567 3457 ft 85 kts 329°
2026-04-28 11:54 54.40527 19.59035 3459 ft 84 kts 330°
2026-04-28 11:55 54.41011 19.58454 3460 ft 84 kts 327°
2026-04-28 11:55 54.41519 19.58172 3450 ft 72 kts
2026-04-28 11:55 54.41976 19.58631 3468 ft 83 kts 26°
2026-04-28 11:55 54.42352 19.59403 3446 ft 87 kts 64°
2026-04-28 11:56 54.42276 19.60453 3335 ft 94 kts 108°
2026-04-28 11:56 54.41789 19.61202 3170 ft 95 kts 154°
2026-04-28 11:56 54.41124 19.61285 3022 ft 101 kts 198°
2026-04-28 11:56 54.40543 19.60665 2880 ft 97 kts 236°
2026-04-28 11:57 54.40124 19.59757 2735 ft 97 kts 249°
2026-04-28 11:57 54.39934 19.58686 2584 ft 91 kts 274°
2026-04-28 11:57 54.39917 19.57628 2463 ft 86 kts 284°
2026-04-28 11:57 54.39983 19.56650 2451 ft 85 kts 292°
2026-04-28 11:58 54.40148 19.55567 2456 ft 101 kts 291°
2026-04-28 11:58 54.40171 19.54271 2453 ft 113 kts 271°
2026-04-28 11:58 54.40001 19.53023 2445 ft 108 kts 258°
2026-04-28 11:58 54.39652 19.51788 2453 ft 119 kts 248°
2026-04-28 11:59 54.39267 19.50559 2441 ft 112 kts 249°
2026-04-28 11:59 54.38975 19.49398 2441 ft 99 kts 265°
2026-04-28 11:59 54.38835 19.48275 2449 ft 95 kts 269°
2026-04-28 11:59 54.38724 19.47167 2448 ft 93 kts 271°
2026-04-28 12:00 54.38690 19.46034 2459 ft 101 kts 278°
2026-04-28 12:00 54.38689 19.44752 2457 ft 113 kts 278°
2026-04-28 12:00 54.38584 19.43364 2454 ft 122 kts 264°
2026-04-28 12:00 54.38301 19.41936 2448 ft 126 kts 257°
2026-04-28 12:01 54.37990 19.40531 2447 ft 126 kts 257°
2026-04-28 12:01 54.37689 19.39094 2453 ft 126 kts 258°
2026-04-28 12:01 54.37393 19.37712 2512 ft 122 kts 257°
2026-04-28 12:01 54.37088 19.36323 2520 ft 125 kts 257°
2026-04-28 12:02 54.36810 19.34928 2521 ft 125 kts 259°
2026-04-28 12:02 54.36560 19.33499 2526 ft 124 kts 263°
2026-04-28 12:02 54.36344 19.32056 2528 ft 125 kts 263°
2026-04-28 12:02 54.36117 19.30599 2531 ft 125 kts 262°
2026-04-28 12:03 54.35911 19.29164 2531 ft 124 kts 264°
2026-04-28 12:03 54.35758 19.27707 2529 ft 123 kts 268°
2026-04-28 12:03 54.35612 19.26252 2526 ft 123 kts 266°
2026-04-28 12:03 54.35465 19.24817 2526 ft 123 kts 267°
2026-04-28 12:04 54.35289 19.23364 2528 ft 123 kts 267°
2026-04-28 12:04 54.35147 19.21925 2532 ft 121 kts 270°
2026-04-28 12:04 54.35049 19.20544 2528 ft 115 kts 271°
2026-04-28 12:04 54.34969 19.19189 2526 ft 111 kts 273°
2026-04-28 12:05 54.34900 19.17895 2531 ft 107 kts 276°
2026-04-28 12:05 54.34910 19.16640 2529 ft 107 kts 270°
2026-04-28 12:05 54.34565 19.15462 2536 ft 115 kts 237°
2026-04-28 12:05 54.33919 19.14624 2537 ft 120 kts 211°
2026-04-28 12:06 54.33102 19.14235 2533 ft 123 kts 189°
2026-04-28 12:06 54.32253 19.14413 2528 ft 120 kts 156°
2026-04-28 12:06 54.31645 19.15161 2514 ft 97 kts 120°
2026-04-28 12:06 54.31339 19.16230 2541 ft 102 kts 89°
2026-04-28 12:07 54.31362 19.17466 2540 ft 104 kts 65°
2026-04-28 12:07 54.31692 19.18415 2529 ft 85 kts 32°
2026-04-28 12:07 54.32213 19.18891 2532 ft 84 kts 14°
2026-04-28 12:07 54.32791 19.19093 2530 ft 85 kts 357°
2026-04-28 12:08 54.33365 19.18799 2524 ft 89 kts 330°
2026-04-28 12:08 54.33747 19.17929 2524 ft 97 kts 300°
2026-04-28 12:08 54.33804 19.16728 2521 ft 107 kts 271°
2026-04-28 12:08 54.33487 19.15522 2516 ft 115 kts 238°
2026-04-28 12:09 54.32801 19.14764 2523 ft 122 kts 200°
2026-04-28 12:09 54.31942 19.14670 2518 ft 127 kts 174°
2026-04-28 12:09 54.31030 19.14853 2516 ft 133 kts 173°
2026-04-28 12:09 54.30086 19.14759 2513 ft 136 kts 188°
2026-04-28 12:10 54.29139 19.14532 2512 ft 138 kts 191°
2026-04-28 12:10 54.28202 19.14248 2513 ft 135 kts 192°
2026-04-28 12:10 54.27320 19.14079 2471 ft 121 kts 180°
2026-04-28 12:10 54.26507 19.14257 2364 ft 118 kts 157°
2026-04-28 12:11 54.25735 19.14795 2267 ft 120 kts 150°
2026-04-28 12:11 54.25000 19.15464 2166 ft 120 kts 146°
2026-04-28 12:11 54.24279 19.16174 2063 ft 120 kts 142°
2026-04-28 12:11 54.23565 19.16945 1957 ft 120 kts 142°
2026-04-28 12:12 54.22834 19.17658 1849 ft 121 kts 147°
2026-04-28 12:12 54.22087 19.18315 1743 ft 121 kts 149°
2026-04-28 12:12 54.21346 19.19031 1638 ft 121 kts 144°
2026-04-28 12:12 54.20613 19.19733 1535 ft 121 kts 145°
2026-04-28 12:13 54.19912 19.20478 1503 ft 116 kts 144°
2026-04-28 12:13 54.19204 19.21151 1495 ft 114 kts 141°
2026-04-28 12:13 54.18592 19.21946 1495 ft 109 kts 134°
2026-04-28 12:13 54.18027 19.22810 1504 ft 106 kts 126°
2026-04-28 12:14 54.17548 19.23754 1505 ft 105 kts 120°
2026-04-28 12:14 54.17121 19.24737 1511 ft 100 kts 110°
2026-04-28 12:14 54.16781 19.25804 1518 ft 101 kts 105°
2026-04-28 12:14 54.16470 19.26898 1522 ft 104 kts 107°
2026-04-28 12:15 54.16137 19.28017 1518 ft 106 kts 110°
2026-04-28 12:15 54.15793 19.29134 1522 ft 106 kts 106°
2026-04-28 12:15 54.15458 19.30270 1516 ft 108 kts 109°
2026-04-28 12:15 54.15109 19.31413 1517 ft 107 kts 106°
2026-04-28 12:16 54.14768 19.32551 1519 ft 108 kts 108°
2026-04-28 12:16 54.14421 19.33705 1515 ft 109 kts 108°
2026-04-28 12:16 54.14077 19.34884 1519 ft 112 kts 108°
2026-04-28 12:16 54.13719 19.36015 1496 ft 98 kts 108°
2026-04-28 12:17 54.13407 19.36936 1493 ft 81 kts 107°
2026-04-28 12:17 54.13140 19.37802 1517 ft 87 kts 102°
2026-04-28 12:17 54.12886 19.38802 1522 ft 96 kts 99°
2026-04-28 12:17 54.12677 19.39912 1502 ft 100 kts 96°
2026-04-28 12:18 54.12505 19.41045 1541 ft 97 kts 93°
2026-04-28 12:18 54.12336 19.42177 1378 ft 102 kts 93°
2026-04-28 12:18 54.12204 19.43306 1208 ft 86 kts 89°
2026-04-28 12:18 54.12091 19.44271 1190 ft 81 kts 92°
2026-04-28 12:19 54.12156 19.45116 1094 ft 66 kts 40°
2026-04-28 12:19 54.12544 19.45403 1034 ft 58 kts 12°
2026-04-28 12:19 54.12940 19.45577 980 ft 58 kts
2026-04-28 12:19 54.13319 19.45488 851 ft 55 kts 340°
2026-04-28 12:20 54.13606 19.45008 649 ft 66 kts 305°
2026-04-28 12:20 54.13785 19.44252 472 ft 69 kts 298°
2026-04-28 12:20 54.13930 19.43407 202 ft 82 kts 290°
2026-04-28 12:20 54.14057 19.42491 1 ft 68 kts 290°
2026-04-28 12:21 54.14155 19.41877 -4 ft 41 kts 304°
2026-04-28 12:21 54.14139 19.41719 -4 ft 14 kts 58°
2026-04-28 12:21 54.14161 19.41801 -5 ft 7 kts 104°
2026-04-28 12:21 54.14150 19.41937 -5 ft 11 kts 99°
2026-04-28 12:22 54.14125 19.42111 -5 ft 8 kts 72°
2026-04-28 12:22 54.14162 19.42137 -5 ft 14 kts 13°
2026-04-28 12:22 54.14217 19.42165 -5 ft 6 kts 15°
2026-04-28 12:22 54.14292 19.42195 -5 ft 16 kts 15°
2026-04-28 12:23 54.14372 19.42216 -5 ft 10 kts 13°
2026-04-28 12:23 54.14477 19.42270 -5 ft 11 kts 37°
2026-04-28 12:23 54.14481 19.42306 -5 ft 0 kts 109°